GW2521 Weather Reports


time (UTC)temp
C
wind
direction
speed
KPH
gust
KPH
rain 1hr
cm
rain 24hr
cm
rain mn
cm
humidity
%
barometer
mb
20260504215401 24 233 12.9 17.7 0.00 0.00 0.00 44 1002.3
20260504214857 24 253 16.1 22.5 0.00 0.00 0.00 43 1002.2
20260504214354 23 281 9.7 12.9 0.00 0.00 0.00 43 1002.2
20260504213851 23 258 14.5 24.1 0.00 0.00 0.00 42 1002.4
20260504213347 24 196 20.9 37.0 0.00 0.00 0.00 42 1002.2
20260504212844 24 201 9.7 12.9 0.00 0.00 0.00 44 1002.3
20260504212340 24 220 17.7 25.7 0.00 0.00 0.00 43 1002.3
20260504211838 24 231 9.7 14.5 0.00 0.00 0.00 42 1002.1
20260504211334 25 219 8.0 11.3 0.00 0.00 0.00 44 1002.0
20260504210832 24 218 17.7 25.7 0.00 0.00 0.00 42 1002.1
20260504210328 24 262 14.5 20.9 0.00 0.00 0.00 42 1002.2
20260504205826 23 244 14.5 17.7 0.00 0.00 0.00 44 1002.1
20260504205323 24 350 8.0 12.9 0.00 0.00 0.00 44 1002.2
20260504204821 25 234 12.9 20.9 0.00 0.00 0.00 45 1002.1
20260504204320 24 202 8.0 12.9 0.00 0.00 0.00 45 1002.2
20260504203819 24 209 19.3 27.4 0.00 0.00 0.00 43 1002.1
20260504203315 24 215 19.3 25.7 0.00 0.00 0.00 44 1002.1
20260504202810 24 249 17.7 20.9 0.00 0.00 0.00 43 1002.2
20260504202308 24 146 14.5 20.9 0.00 0.00 0.00 42 1002.3
20260504201804 24 196 17.7 17.7 0.00 0.00 0.00 44 1002.2
20260504201302 23 192 11.3 12.9 0.00 0.00 0.00 44 1002.3
20260504200759 25 262 11.3 14.5 0.00 0.00 0.00 44 1002.3
20260504200255 25 230 24.1 27.4 0.00 0.00 0.00 43 1002.5
20260504195752 24 215 19.3 25.7 0.00 0.00 0.00 43 1002.6
20260504195248 24 223 17.7 24.1 0.00 0.00 0.00 43 1002.5
20260504194745 23 206 16.1 20.9 0.00 0.00 0.00 47 1002.7
20260504194241 24 223 20.9 32.2 0.00 0.00 0.00 45 1003.0
20260504193737 24 235 12.9 17.7 0.00 0.00 0.00 45 1002.7
20260504193235 25 196 8.0 12.9 0.00 0.00 0.00 46 1003.0
20260504192733 24 285 17.7 29.0 0.00 0.00 0.00 43 1003.1
20260504192231 23 213 19.3 27.4 0.00 0.00 0.00 45 1003.0
20260504191730 23 206 14.5 17.7 0.00 0.00 0.00 45 1003.2
20260504191226 24 223 20.9 25.7 0.00 0.00 0.00 44 1002.8
20260504190721 24 258 16.1 20.9 0.00 0.00 0.00 47 1002.9
20260504190218 24 218 20.9 27.4 0.00 0.00 0.00 47 1002.9
20260504185715 23 190 24.1 35.4 0.00 0.00 0.00 49 1003.1
20260504185212 23 196 20.9 25.7 0.00 0.00 0.00 48 1003.0
20260504184707 23 208 16.1 22.5 0.00 0.00 0.00 48 1002.9
20260504184203 23 210 14.5 24.1 0.00 0.00 0.00 48 1003.6
20260504183659 23 213 22.5 32.2 0.00 0.00 0.00 47 1003.1
20260504183156 22 254 14.5 16.1 0.00 0.00 0.00 48 1003.4
20260504182654 23 209 17.7 24.1 0.00 0.00 0.00 48 1003.3
20260504182152 23 192 14.5 20.9 0.00 0.00 0.00 48 1003.6
20260504181649 23 253 11.3 14.5 0.00 0.00 0.00 49 1003.2
20260504181147 23 203 19.3 22.5 0.00 0.00 0.00 48 1003.7
20260504180646 22 203 14.5 16.1 0.00 0.00 0.00 51 1003.4
20260504180144 22 218 20.9 29.0 0.00 0.00 0.00 51 1003.6
20260504175641 23 190 9.7 12.9 0.00 0.00 0.00 53 1003.6
20260504175137 23 189 12.9 16.1 0.00 0.00 0.00 55 1003.3
20260504174636 22 252 6.4 8.0 0.00 0.00 0.00 53 1003.8
20260504174131 22 225 11.3 14.5 0.00 0.00 0.00 52 1004.0
20260504173629 22 210 14.5 17.7 0.00 0.00 0.00 54 1003.9
20260504173127 22 185 20.9 29.0 0.00 0.00 0.00 54 1003.9
20260504172623 22 194 11.3 14.5 0.00 0.00 0.00 54 1004.2
20260504172120 21 186 20.9 25.7 0.00 0.00 0.00 54 1004.1
20260504171616 22 276 4.8 4.8 0.00 0.00 0.00 58 1004.4
20260504171113 22 109 11.3 14.5 0.00 0.00 0.00 53 1004.3
20260504170609 21 244 6.4 9.7 0.00 0.00 0.00 55 1004.5
20260504170107 21 209 14.5 14.5 0.00 0.00 0.00 53 1004.5
20260504150952 18 191 11.3 12.9 0.00 0.00 0.00 61 1005.8
20260504150449 18 242 4.8 8.0 0.00 0.00 0.00 62 1005.7
20260504140916 16 197 6.4 8.0 0.00 0.00 0.00 68 1006.1
20260504140412 15 187 4.8 4.8 0.00 0.00 0.00 69 1006.0
20260504130337 13 205 9.7 11.3 0.00 0.00 0.00 69 1006.4
20260504120300 11 157 6.4 9.7 0.00 0.00 0.00 77 1006.7
20260504110224 10 186 4.8 4.8 0.00 0.00 0.00 77 1006.5
20260504100142 10 178 3.2 3.2 0.00 0.00 0.00 76 1006.8
20260504090105 8 198 4.8 4.8 0.00 0.00 0.00 79 1006.5
20260504081535 8 104 0.0 0.0 0.00 0.00 0.00 81 1007.0
20260504081031 8 131 0.0 0.0 0.00 0.00 0.00 81 1007.0
20260504080527 8 99 0.0 0.0 0.00 0.00 0.00 81 1007.2
20260504050334 8 106 0.0 0.0 0.00 0.00 0.00 80 1009.1
20260504045831 8 89 0.0 0.0 0.00 0.00 0.00 80 1008.9
20260504045326 8 123 0.0 0.0 0.00 0.00 0.00 79 1009.0
20260504044823 8 142 1.6 3.2 0.00 0.00 0.00 79 1009.3
20260504044321 8 105 0.0 0.0 0.00 0.00 0.00 78 1009.1
20260504043818 8 122 0.0 0.0 0.00 0.00 0.00 78 1009.3
20260504043315 8 153 3.2 3.2 0.00 0.00 0.00 78 1009.3
20260504042812 8 122 1.6 1.6 0.00 0.00 0.00 78 1009.0
20260504042308 9 102 0.0 0.0 0.00 0.00 0.00 78 1009.2
20260504041805 9 135 0.0 0.0 0.00 0.00 0.00 78 1009.2
20260504041301 8 130 1.6 1.6 0.00 0.00 0.00 78 1009.4
20260504040757 8 111 3.2 3.2 0.00 0.00 0.00 78 1009.5
20260504040255 8 114 0.0 0.0 0.00 0.00 0.00 78 1009.4
20260504035750 8 136 0.0 1.6 0.00 0.00 0.00 78 1009.3
20260504035248 8 104 0.0 0.0 0.00 0.00 0.00 78 1009.4
20260504034745 8 111 1.6 1.6 0.00 0.00 0.00 78 1009.5
20260504034242 8 106 0.0 0.0 0.00 0.00 0.00 78 1009.5
20260504033740 9 109 0.0 0.0 0.00 0.00 0.00 78 1009.9
20260504033237 9 102 0.0 1.6 0.00 0.00 0.00 78 1009.7
20260504032734 9 131 1.6 3.2 0.00 0.00 0.00 78 1009.8
20260504032231 9 113 0.0 0.0 0.00 0.00 0.00 77 1009.6
20260504031728 9 164 3.2 4.8 0.00 0.00 0.00 78 1009.9
20260504031226 9 183 0.0 0.0 0.00 0.00 0.00 78 1010.0
20260504030721 9 120 1.6 1.6 0.00 0.00 0.00 78 1009.8
20260504030219 8 129 3.2 3.2 0.00 0.00 0.00 79 1009.9
20260504025715 8 135 3.2 3.2 0.00 0.00 0.00 79 1010.1
20260504025212 8 111 0.0 0.0 0.00 0.00 0.00 81 1010.2
20260504024709 8 144 1.6 3.2 0.00 0.00 0.00 81 1010.1
20260504024205 8 104 1.6 1.6 0.00 0.00 0.00 81 1010.2
20260504023702 8 104 0.0 0.0 0.00 0.00 0.00 81 1010.2
20260504023158 8 59 1.6 1.6 0.00 0.00 0.00 81 1010.3
20260504022654 8 114 0.0 0.0 0.00 0.00 0.00 80 1010.2
20260504022150 8 138 1.6 1.6 0.00 0.00 0.00 80 1010.2
20260504021648 8 111 1.6 1.6 0.00 0.00 0.00 80 1010.3
20260504021145 9 126 3.2 3.2 0.00 0.00 0.00 80 1010.4
20260504020642 9 126 1.6 1.6 0.00 0.00 0.00 79 1010.4
20260504020138 9 124 0.0 0.0 0.00 0.00 0.00 79 1010.5
20260504015635 9 94 3.2 4.8 0.00 0.00 0.00 79 1010.3
20260504015131 9 168 3.2 3.2 0.00 0.00 0.00 79 1010.2
20260504014627 9 166 1.6 1.6 0.00 0.00 0.00 79 1010.3
20260504014124 9 183 3.2 3.2 0.00 0.00 0.00 78 1010.2
20260504013622 9 106 1.6 1.6 0.00 0.00 0.00 78 1010.3
20260504013119 9 130 0.0 1.6 0.00 0.00 0.00 78 1010.2
20260504012616 9 149 4.8 8.0 0.00 0.00 0.00 78 1010.3
20260504012114 10 193 3.2 3.2 0.00 0.00 0.00 77 1010.2
20260504011610 10 159 1.6 3.2 0.00 0.00 0.00 77 1010.4
20260504011107 10 185 1.6 8.0 0.00 0.00 0.00 77 1010.2
20260504010602 10 125 1.6 1.6 0.00 0.00 0.00 77 1010.3
20260504010058 10 134 3.2 3.2 0.00 0.00 0.00 77 1010.3
20260504005555 10 116 8.0 12.9 0.00 0.00 0.00 76 1010.4
20260504005053 10 102 0.0 0.0 0.00 0.00 0.00 76 1010.3
20260504004550 10 131 3.2 4.8 0.00 0.00 0.00 76 1010.4
20260504004047 10 162 4.8 4.8 0.00 0.00 0.00 76 1010.5
20260504003543 10 116 4.8 4.8 0.00 0.00 0.00 76 1010.4
20260504003040 10 108 4.8 4.8 0.00 0.00 0.00 75 1010.5
20260504002537 10 119 3.2 3.2 0.00 0.00 0.00 75 1010.5
20260504002035 10 157 3.2 4.8 0.00 0.00 0.00 76 1010.5
20260504001532 10 179 1.6 1.6 0.00 0.00 0.00 77 1010.6
20260504001028 10 135 4.8 4.8 0.00 0.00 0.00 76 1010.6
20260504000525 10 123 3.2 3.2 0.00 0.00 0.00 77 1010.5
20260504000023 10 142 4.8 4.8 0.00 0.00 0.00 77 1010.7
20260503235521 10 99 3.2 3.2 0.00 0.00 0.00 77 1010.9
20260503235017 10 139 4.8 4.8 0.00 0.00 0.00 76 1011.1
20260503234515 10 129 3.2 3.2 0.00 0.00 0.00 76 1011.0
20260503234014 10 134 1.6 1.6 0.00 0.00 0.00 76 1010.7
20260503233509 10 108 8.0 9.7 0.00 0.00 0.00 76 1011.1
20260503233006 10 169 3.2 3.2 0.00 0.00 0.00 75 1011.1
20260503232503 10 157 6.4 9.7 0.00 0.00 0.00 75 1011.0
20260503232000 10 101 4.8 4.8 0.00 0.00 0.00 75 1011.0
20260503231458 10 119 4.8 8.0 0.00 0.00 0.00 75 1011.0
20260503230954 10 150 4.8 8.0 0.00 0.00 0.00 75 1011.2
20260503230451 10 139 6.4 8.0 0.00 0.00 0.00 75 1011.3
20260503225948 10 213 3.2 3.2 0.00 0.00 0.00 76 1011.5
20260503225445 10 118 6.4 9.7 0.00 0.00 0.00 76 1011.6
20260503224940 10 148 6.4 8.0 0.00 0.00 0.00 76 1011.2
20260503224438 10 148 3.2 3.2 0.00 0.00 0.00 77 1011.5
20260503223936 10 95 3.2 4.8 0.00 0.00 0.00 76 1011.3
20260503223433 10 142 8.0 9.7 0.00 0.00 0.00 76 1011.4
20260503222928 10 129 3.2 3.2 0.00 0.00 0.00 76 1011.6
20260503222427 10 162 3.2 3.2 0.00 0.00 0.00 76 1011.5
20260503221925 10 202 8.0 9.7 0.00 0.00 0.00 76 1011.8
20260503221423 10 145 4.8 4.8 0.00 0.00 0.00 77 1011.8
20260503220920 10 125 3.2 4.8 0.00 0.00 0.00 76 1011.9
20260503220416 10 149 1.6 3.2 0.00 0.00 0.00 76 1011.7
20260503215913 10 144 1.6 1.6 0.00 0.00 0.00 76 1011.8